Regional Weather Roundup
Issued by NWS

Home | Current Version | Previous Version | Graphics & Text | Print | Product List | Glossary Off
Versions: 1 2 3 4 5 6 7 8 9 10 11 12 13 14 15 16 17 18 19 20 21 22 23 24 25 26 27 28 29 30 31 32 33 34 35 36 37 38 39 40 41 42 43 44 45 46 47 48 49 50

000
ASUS43 KTOP 260308
RWRKS

WEATHER ROUNDUP FOR KANSAS
NATIONAL WEATHER SERVICE GOODLAND KS
1000 PM CDT TUE JUL 25 2017

NOTE:  "FAIR" INDICATES FEW OR NO CLOUDS BELOW 12,000 FEET WITH NO
SIGNIFICANT WEATHER AND/OR OBSTRUCTIONS TO VISIBILITY.

KSZ001>006-013>018-027>032-041>047-260400-
NORTHWEST KANSAS

CITY           SKY/WX    TMP DP  RH WIND       PRES   REMARKS
GOODLAND       MOCLDY    82  63  52 S10       29.94F
HAYS           PTCLDY    89  66  46 SE13      29.93R
HILL CITY      PTCLDY    90  67  46 SE9       29.90S
RUSSELL        PTCLDY    89  66  46 SE15      29.92R
$$

KSZ061>065-074>080-084>089-260400-
SOUTHWEST KANSAS

CITY           SKY/WX    TMP DP  RH WIND       PRES   REMARKS
DODGE CITY     PTCLDY    88  63  43 S16       29.97R
ELKHART          N/A     83  52  34 S13         N/A
GARDEN CITY    PTCLDY    86  62  44 SE15      29.95R
GREAT BEND     CLOUDY    89  68  49 SE16      29.95R
LIBERAL        CLOUDY    87  63  44 S15       29.98R
PRATT          CLEAR     87  63  44 S13       29.98R
$$

KSZ066>073-081>083-090>101-260400-
SOUTHEAST KANSAS

CITY           SKY/WX    TMP DP  RH WIND       PRES   REMARKS
CHANUTE        CLEAR     81  71  71 SE6       30.03R
COFFEYVILLE    CLEAR     84  72  67 SE7       30.01R
HUTCHINSON     CLEAR     86  67  52 SE12      29.97R
MEDICINE LODGE   N/A     90  64  42 S9        29.96R
NEWTON         CLEAR     83  69  62 SE10      30.00R
PARSONS        CLEAR     82  71  69 SE3       30.04R
WICHITA INTL   PTCLDY    87  69  54 SE14      29.98R
WICHITA JABRA  CLEAR     87  68  52 SE12      29.99R
WICHITA MCCONL CLEAR     87  68  51 S14       30.00R
WINFIELD       CLEAR     86  69  56 SE10      30.01R
$$

KSZ007>012-019>026-033>040-048>060-102>105-260400-
NORTHEAST KANSAS

CITY           SKY/WX    TMP DP  RH WIND       PRES   REMARKS
CONCORDIA      CLOUDY    83  67  58 SE10      29.95R
EMPORIA        CLEAR     84  70  62 SE13      30.01R
LAWRENCE       PTCLDY    79  75  87 SE6       30.00S
MANHATTAN      CLEAR     86  71  60 S9        29.97R
MARYSVILLE     CLEAR     86  70  58 S12       29.97R
OLATHE IND     CLEAR     83  73  72 SE7       30.03S
OLATHE EXE     CLEAR     82  75  79 SE6       30.03S
SALINA         CLEAR     90  65  43 SE14      29.95R
TOPEKA BILLARD CLEAR     81  75  82 SE6       29.99S
TOPEKA FORBES  CLEAR     83  73  72 SE7       30.00S
$$




USA.gov is the U.S. government's official web portal to all federal, state and local government web resources and services.